Location: Elstree
(51.6403°N, 0.2969°W)
Time: 14:41:35
(UTC+00:00)

IRS-1A Rocket - Pass Details

Date: 03 March 2021
Orbit: 851 x 931 km, 99.2° (Epoch: 13 April)

Event Time Altitude Azimuth Distance (km) Brightness Sun altitude
Exits shadow 19:46:41 15° 159° (SSE) 2,167 6.0 -19.5°
Maximum altitude 19:51:23 86° 72° (ENE) 880 4.2 -20.2°
Drops below altitude 10° 19:56:57 10° 345° (NNW) 2,509 7.1 -21.0°
Sets 19:59:19 0° 345° (NNW) 3,444 7.8 -21.4°
